sat.trackr.live / text

‹ back to catalog

STARLINK-36270

NORAD 67200 · 2025-304J

PAYLOAD ACTIVE UNKNOWN

§ Identity

Operator
Country
US
Launch date
2025-12-17
Launch site
AFWTR
Launch vehicle
Mass (kg)
RCS (m²)

Purposes: comms

External: N2YO · Heavens-Above · Gunter

§ Orbital elements

Epoch: 2026-09-19T16:18:41.950944Z

Period
96.11 min
Inclination
70.0017°
Eccentricity
0.0002636
Mean motion
14.98337798 rev/d
Perigee alt
570.2 km
Apogee alt
573.9 km
Semi-major
6,950.2 km
B*
2.9848e-4
RAAN
45.2985°
Arg perigee
269.8668°
Mean anomaly
90.2189°
Rev number
4,294

§ Raw data

STARLINK-362701 67200U 25304J   26262.67965221  .00003471  00000+0  29848-3 0  99932 67200  70.0017  45.2985 0002636 269.8668  90.2189 14.98337798 42944

JSON: /api/v1/satellites/67200 · /tle

For live sub-satellite position, see the globe view (requires WebGL).

§ Visibility from observer

Set your observer location to see the next 7 days of passes ≥ 10°. The values pass through the URL so the page stays shareable.

No JS? Fill the form by hand. The geolocation button needs JavaScript.